sat.trackr.live / text

‹ back to catalog

MTG-S1

NORAD 64723 · 2025-143A

PAYLOAD ACTIVE UNKNOWN

§ Identity

Operator
Country
EUME
Launch date
2025-07-01
Launch site
AFETR
Launch vehicle
Mass (kg)
RCS (m²)

Purposes: comms, earth_obs

External: N2YO · Heavens-Above · Gunter

§ Orbital elements

Epoch: 2026-09-19T16:58:13.822752Z

Period
1,436.09 min
Inclination
0.6198°
Eccentricity
0.0003562
Mean motion
1.00272587 rev/d
Perigee alt
35,771.4 km
Apogee alt
35,801.4 km
Semi-major
42,164.5 km
B*
0.0000e+0
RAAN
341.5146°
Arg perigee
252.7697°
Mean anomaly
18.6250°
Rev number
436

§ Raw data

MTG-S11 64723U 25143A   26262.70710443 -.00000011  00000+0  00000+0 0  99922 64723   0.6198 341.5146 0003562 252.7697  18.6250  1.00272587  4363

JSON: /api/v1/satellites/64723 · /tle

For live sub-satellite position, see the globe view (requires WebGL).

§ Visibility from observer

Set your observer location to see the next 7 days of passes ≥ 10°. The values pass through the URL so the page stays shareable.

No JS? Fill the form by hand. The geolocation button needs JavaScript.